Regional Weather Roundup
Issued by NWS Cleveland, OH

Home | Current Version | Previous Version | Graphics & Text | Print | Product List | Glossary On
Versions: 1 2 3 4 5 6 7 8 9 10 11 12 13 14 15 16 17 18 19 20 21 22 23 24 25 26 27 28 29 30 31 32 33 34 35 36 37 38 39 40 41 42 43 44 45 46 47 48 49 50
857
ASUS41 KCLE 281802
RWRCLE
OHIO REGIONAL WEATHER ROUNDUP
NATIONAL WEATHER SERVICE CLEVELAND, OH
200 PM EDT SUN MAY 28 2017

NOTE: "FAIR" INDICATES FEW OR NO CLOUDS BELOW 12,000 FEET WITH NO
SIGNIFICANT WEATHER AND/OR OBSTRUCTIONS TO VISIBILITY.

OHZ001>008-015>018-024>027-034-035-043-044-281900-
   NORTHWEST OHIO

CITY           SKY/WX    TMP DP  RH WIND       PRES   REMARKS
DEFIANCE       CLOUDY    72  64  76 S6        29.72F
FINDLAY        CLOUDY    73  65  75 S9        29.71F
TOLEDO EXPRESS CLOUDY    71  67  87 SW5       29.72F
TOLEDO EXEC    CLOUDY    74  64  71 NE8       29.72F
LIMA           PTSUNNY   77  67  71 SW12G20   29.72F
$$

OHZ009>014-019>023-028>033-038-089-281900-
   NORTHEAST OHIO

CITY           SKY/WX    TMP DP  RH WIND       PRES   REMARKS
CLE-HOPKINS    CLOUDY    79  67  66 S13       29.75S
CLE-LAKEFRONT  CLOUDY    66  59  78 NE14      29.72F
CUY CO. ARPT   PTSUNNY   81  66  61 W7        29.73F
LORAIN-ELYRIA  CLOUDY    73  62  68 SW9       29.74F
ASHTABULA      CLOUDY    77  63  61 VRB5      29.76F
AKRON-CANTON   CLOUDY    71  65  81 SW8       29.77F HAZE
WOOSTER        CLOUDY    74  66  76 SW12      29.76F
MANSFIELD      CLOUDY    76  65  68 S15       29.74F
YOUNGSTOWN     CLOUDY    74  64  71 S9        29.76F
$$

OHZ042-051>053-060>062-070>072-077>081-281900-
  SOUTHWEST OHIO

CITY           SKY/WX    TMP DP  RH WIND       PRES   REMARKS
CINC-COVINGTON CLOUDY    72  62  71 W12G22    29.80F
CINC-LUNKEN    PTSUNNY   74  65  73 SW12      29.79F
HAMILTON       PTSUNNY   74  64  71 SW14G20   29.79S
DAYTON         CLOUDY    76  62  62 SW16      29.77S
WRIGHT-PAT AFB PTSUNNY   76  65  68 SW16      29.76S
DAYTON GENERAL PTSUNNY   75  62  64 SW13G24   29.77S
WILMINGTON     CLOUDY    73  64  73 SW15      29.77S
$$

OHZ036-037-039>041-045>050-054>059-063>069-073>076-082>088-281900-
  CENTRAL AND SOUTHEAST OHIO

CITY           SKY/WX    TMP DP  RH WIND       PRES   REMARKS
COLUMBUS       PTSUNNY   76  65  68 S15       29.76S
OSU AIRPORT    PTSUNNY   76  64  66 S15G22    29.75F
BOLTON FIELD   MOSUNNY   75  66  73 S16       29.77F
RICKENBACK AFB PTSUNNY   76  65  68 SW13G21   29.76S
NEWARK         CLOUDY    75  64  68 SW10      29.76F
MARION         PTSUNNY   77  65  66 S13       29.73F
LANCASTER      CLOUDY    78  66  66 SW8       29.77F
ZANESVILLE     MOSUNNY   78  63  59 SW9       29.75F
NEW PHILLY     NOT AVBL
$$




USA.gov is the U.S. government's official web portal to all federal, state and local government web resources and services.